[[{"header":{"parameterUnit":"m.s-1","parameterCategory":1,"la1":30.2991,"la2":30.254,"lo1":-89.0895,"lo2":-89.0444,"dy":0.0017,"dx":0.0017,"nx":28,"ny":28,"refTime":"2025-11-18T03:00:00:Z","depth":0,"parameterNumber":2,"parameterNumberName":"U-component_of_WINDS"},"data":[0,0,0,0,0,0,0,0,0,0,0,0,0,0,0,0,0,0,0,0,0,0,0,0,0,0,0,0,0,0,0,0,0,0,0,0,0,0,0,0,0,0,0,0,0,0,0,0,0,0,0,0,0,0,0,0,0,0,-0.7124,-0.7125,0,-0.7252,-0.7253,-0.7255,-0.7315,-0.7315,-0.7315,-0.7315,-0.7449,-0.7453,-0.7457,0,0,0,0,0,0,0,0,0,0,0,0,0,-0.6936,-0.6939,-0.7123,-0.7125,-0.7127,-0.7251,-0.7253,-0.7255,-0.7315,-0.7315,-0.7315,-0.7315,-0.7448,-0.7452,-0.7457,0,0,0,0,0,0,0,0,0,0,0,0,0,-0.7036,-0.694,-0.7123,-0.7172,-0.7177,-0.7251,-0.7253,-0.7255,-0.7315,-0.7315,-0.7315,-0.7315,-0.7447,-0.7452,-0.7457,-0.7493,0,0,-0.7474,-0.7477,0,0,0,0,0,0,0,0,-0.703,-0.7043,-0.7163,-0.7169,-0.7175,-0.7267,-0.7236,-0.7335,-0.7315,-0.7263,-0.7315,-0.7315,-0.7389,-0.7399,-0.7424,-0.75,-0.7505,-0.7475,-0.7478,-0.748,-0.7482,0,0,0,0,0,0,0,-0.7023,-0.7038,-0.7174,-0.7165,-0.7172,-0.7189,-0.7203,-0.7255,-0.7325,-0.7268,-0.7272,-0.7287,-0.7392,-0.7418,-0.7427,-0.7507,-0.7474,-0.7479,-0.7483,-0.7485,-0.7622,-0.7622,0,0,0,0,0,0,-0.7008,-0.7031,-0.717,-0.7178,-0.7101,-0.7192,-0.7208,-0.7238,-0.7325,-0.7338,-0.7286,-0.7289,-0.7409,-0.7421,-0.7432,-0.7481,-0.748,-0.7485,-0.7489,-0.7621,-0.7622,-0.7622,0,0,0,0,0,0,-0.7004,-0.702,-0.7165,-0.7106,-0.7126,-0.7196,-0.7229,-0.724,-0.7266,-0.7339,-0.7352,-0.73,-0.7409,-0.7425,-0.7478,-0.7486,-0.7488,-0.7493,-0.7621,-0.7621,-0.7622,-0.7578,0,0,0,0,0,0,-0.6998,-0.7018,-0.7031,-0.7106,-0.7129,-0.7207,-0.7229,-0.7243,-0.7275,-0.728,-0.7355,-0.7367,-0.741,-0.7469,-0.7483,-0.7494,-0.7497,-0.762,-0.7621,-0.7622,-0.7579,-0.7577,-0.7575,0,0,0,0,0,-0.6991,-0.7014,-0.7031,-0.7047,-0.7146,-0.7207,-0.7221,-0.7269,-0.7276,-0.729,-0.7337,-0.7365,-0.7483,-0.7474,-0.7491,-0.7503,-0.762,-0.7621,-0.7622,-0.758,-0.7577,-0.7575,0,0,0,0,0,0,-0.6938,-0.7024,-0.7045,-0.7092,-0.7142,-0.7217,-0.7237,-0.7264,-0.7314,-0.7316,-0.7375,-0.7392,-0.744,-0.7477,-0.7466,-0.7543,-0.7554,-0.7558,-0.7517,-0.7515,-0.7513,-0.7503,-0.7502,0,0,0,0,0,-0.6932,-0.6973,-0.7047,-0.7081,-0.7105,-0.7167,-0.7195,-0.7228,-0.7283,-0.7304,-0.7355,-0.7408,-0.7457,-0.7489,-0.7538,-0.7585,-0.7603,-0.7602,-0.76,-0.7598,-0.76,-0.763,-0.763,-0.7625,-0.7625,-0.7625,0,0,-0.692,-0.6972,-0.6994,-0.7072,-0.7115,-0.7157,-0.7184,-0.7228,-0.726,-0.7311,-0.7364,-0.7404,-0.7467,-0.7518,-0.7543,-0.755,-0.7606,-0.7599,-0.7597,-0.7601,-0.7631,-0.7631,-0.7631,-0.7625,-0.7625,-0.7625,0,0,-0.6919,-0.6962,-0.6996,-0.7039,-0.7102,-0.7144,-0.7152,-0.7224,-0.7252,-0.7306,-0.7346,-0.7386,-0.7469,-0.7513,-0.7546,-0.7564,-0.7592,-0.7579,-0.7569,-0.7596,-0.7597,-0.7598,-0.7605,-0.7607,-0.7581,-0.7581,-0.7581,0,-0.6896,-0.696,-0.7011,-0.7052,-0.7086,-0.7134,-0.717,-0.7209,-0.7286,-0.7309,-0.7316,-0.7423,-0.7469,-0.7531,-0.7535,-0.756,-0.7573,-0.757,-0.7593,-0.7594,-0.7595,-0.7603,-0.7605,-0.7579,-0.758,-0.758,-0.758,0,-0.693,-0.6974,-0.6994,-0.7066,-0.7103,-0.7141,-0.7199,-0.723,-0.726,-0.7301,-0.7357,-0.7414,-0.7476,-0.7494,-0.7524,-0.7561,-0.7564,-0.7581,-0.7593,-0.7593,-0.7601,-0.7604,-0.7576,-0.7577,-0.7578,-0.7578,0,0,-0.6898,-0.6998,-0.7005,-0.7039,-0.7114,-0.715,-0.7192,-0.7252,-0.7278,-0.733,-0.7367,-0.7438,-0.7455,-0.7492,-0.7528,-0.7553,-0.7564,-0.7568,-0.757,-0.7565,-0.761,-0.7596,-0.7598,-0.7584,-0.7584,-0.7585,-0.7605,0,-0.6908,-0.6983,-0.703,-0.7087,-0.7129,-0.7176,-0.7213,-0.7264,-0.7304,-0.7347,-0.7392,-0.7441,-0.7459,-0.7482,-0.7509,-0.7557,-0.7574,-0.7557,-0.762,-0.7622,-0.7602,-0.7603,-0.7588,-0.7604,-0.7608,-0.7609,-0.7609,0,-0.6929,-0.6979,-0.7039,-0.7111,-0.713,-0.7162,-0.7222,-0.7262,-0.7322,-0.7349,-0.7392,-0.7429,-0.7477,-0.7485,-0.7553,-0.754,-0.757,-0.7598,-0.76,-0.7607,-0.7615,-0.761,-0.761,-0.7612,-0.7615,-0.7614,-0.7614,0,-0.69,-0.6983,-0.703,-0.7058,-0.7142,-0.7164,-0.72,-0.7259,-0.7293,-0.7346,-0.7369,-0.7427,-0.7459,-0.7504,-0.7556,-0.7558,-0.762,-0.7632,-0.7645,-0.7643,-0.7655,-0.7653,-0.7659,-0.7674,-0.7674,-0.7674,-0.7674,0,-0.6905,-0.6941,-0.7018,-0.7047,-0.7089,-0.7145,-0.7185,-0.7226,-0.7278,-0.7318,-0.7363,-0.7399,-0.7466,-0.7511,-0.7552,-0.7603,-0.7617,-0.7641,-0.7652,-0.7637,-0.7634,-0.7657,-0.7657,-0.7674,-0.7674,-0.7674,-0.7674,0,-0.6879,-0.6933,-0.6987,-0.7063,-0.7083,-0.711,-0.7176,-0.7207,-0.725,-0.7299,-0.7314,-0.7382,-0.7438,-0.7494,-0.7569,-0.7598,-0.7647,-0.7662,-0.7626,-0.7632,-0.7641,-0.764,-0.7662,-0.7668,-0.7678,-0.7678,-0.7678,0,-0.6879,-0.6907,-0.6986,-0.7015,-0.705,-0.7096,-0.7131,-0.7187,-0.7222,-0.7293,-0.7316,-0.7375,-0.7424,-0.7511,-0.7568,-0.7627,-0.7643,-0.7647,-0.7652,-0.7637,-0.7644,-0.7641,-0.7645,-0.7644,-0.7644,-0.7644,-0.7643,0,-0.6873,-0.6899,-0.6946,-0.7003,-0.7042,-0.709,-0.714,-0.7162,-0.7229,-0.7266,-0.7322,-0.7361,-0.7438,-0.7497,-0.7562,-0.7602,-0.7634,-0.7641,-0.7648,-0.7632,-0.7611,-0.7623,-0.7621,-0.764,-0.7641,-0.7641,-0.7641,-0.7641,-0.6861,-0.6888,-0.6948,-0.7,-0.7043,-0.7089,-0.7122,-0.7169,-0.7217,-0.7283,-0.7315,-0.7372,-0.7434,-0.7525,-0.7564,-0.7611,-0.762,-0.7628,-0.763,-0.7632,-0.7628,-0.7604,-0.7623,-0.7623,-0.7623,-0.7623,-0.7624,0,-0.6857,-0.6898,-0.6945,-0.7013,-0.7054,-0.7081,-0.7138,-0.7171,-0.722,-0.7274,-0.7322,-0.7389,-0.7446,-0.7508,-0.7569,-0.7595,-0.7612,-0.761,-0.7608,-0.7617,-0.7616,-0.7605,-0.7595,-0.7595,-0.7595,-0.7595,-0.7595,-0.7595,-0.686,-0.6908,-0.6941,-0.7012,-0.7054,-0.7109,-0.714,-0.7183,-0.7227,-0.7298,-0.7346,-0.7385,-0.7444,-0.751,-0.7564,-0.7581,-0.7602,-0.7595,-0.7617,-0.7615,-0.7617,-0.7619,-0.7608,-0.7599,-0.7599,-0.7613,-0.7614,-0.7614]},{"header":{"parameterUnit":"m.s-1","parameterCategory":1,"la1":30.2991,"la2":30.254,"lo1":-89.0895,"lo2":-89.0444,"dy":0.0017,"dx":0.0017,"nx":28,"ny":28,"refTime":"2025-11-18T03:00:00:Z","depth":0,"parameterNumber":3,"parameterNumberName":"V-component_of_WINDS"},"data":[0,0,0,0,0,0,0,0,0,0,0,0,0,0,0,0,0,0,0,0,0,0,0,0,0,0,0,0,0,0,0,0,0,0,0,0,0,0,0,0,0,0,0,0,0,0,0,0,0,0,0,0,0,0,0,0,0,0,2.0405,2.0404,0,2.0398,2.0398,2.0398,2.0383,2.0383,2.0383,2.0382,2.0378,2.0378,2.0378,0,0,0,0,0,0,0,0,0,0,0,0,0,2.0408,2.0408,2.0405,2.0404,2.0404,2.0398,2.0398,2.0398,2.0383,2.0383,2.0382,2.0382,2.0378,2.0378,2.0378,0,0,0,0,0,0,0,0,0,0,0,0,0,2.0405,2.0408,2.0405,2.0396,2.0395,2.0398,2.0398,2.0398,2.0383,2.0383,2.0382,2.0382,2.0378,2.0378,2.0378,2.0389,0,0,2.0379,2.0379,0,0,0,0,0,0,0,0,2.0405,2.0405,2.0398,2.0397,2.0396,2.0391,2.0397,2.0395,2.0383,2.0388,2.0382,2.0382,2.0383,2.0382,2.0382,2.0389,2.0388,2.0379,2.0379,2.0379,2.0379,0,0,0,0,0,0,0,2.0405,2.0405,2.0402,2.0398,2.0397,2.0394,2.0393,2.0397,2.0388,2.0388,2.0386,2.0386,2.0382,2.0382,2.0382,2.0388,2.0379,2.0379,2.0379,2.0379,2.0405,2.0406,0,0,0,0,0,0,2.0406,2.0405,2.0402,2.0402,2.0399,2.0394,2.0393,2.0393,2.0388,2.0387,2.0386,2.0385,2.0382,2.0382,2.0382,2.0395,2.0379,2.0379,2.038,2.0405,2.0405,2.0406,0,0,0,0,0,0,2.0406,2.0406,2.0402,2.0403,2.0402,2.0395,2.0395,2.0393,2.0393,2.0387,2.0385,2.0387,2.0381,2.0381,2.0387,2.0394,2.0379,2.038,2.0404,2.0405,2.0405,2.042,0,0,0,0,0,0,2.0406,2.0406,2.0409,2.0403,2.0402,2.0407,2.0395,2.0393,2.0393,2.0392,2.0388,2.0387,2.0381,2.0387,2.0388,2.0395,2.038,2.0403,2.0404,2.0405,2.0419,2.0422,2.0424,0,0,0,0,0,2.0407,2.0414,2.0409,2.0409,2.0406,2.0407,2.0407,2.04,2.0394,2.0397,2.0394,2.0387,2.0394,2.0388,2.0388,2.0395,2.0403,2.0404,2.0405,2.0418,2.0421,2.0424,0,0,0,0,0,0,2.0421,2.0413,2.0408,2.0413,2.0411,2.0405,2.0409,2.0403,2.0403,2.0402,2.0394,2.0393,2.0401,2.0399,2.0392,2.0406,2.0397,2.0399,2.0407,2.041,2.0412,2.0412,2.038,0,0,0,0,0,2.0425,2.0426,2.0419,2.0424,2.0423,2.0417,2.0417,2.0412,2.041,2.0409,2.0406,2.0405,2.0407,2.0408,2.041,2.0419,2.0419,2.0425,2.0427,2.0429,2.043,2.0436,2.0439,2.041,2.041,2.041,0,0,2.0432,2.0428,2.0429,2.0427,2.0425,2.0427,2.0416,2.0418,2.0421,2.041,2.0415,2.0413,2.0411,2.0419,2.0423,2.0418,2.0438,2.043,2.0432,2.0432,2.0438,2.0441,2.0443,2.0411,2.041,2.041,0,0,2.0448,2.0444,2.0449,2.0447,2.0444,2.044,2.0441,2.0436,2.0434,2.0439,2.0431,2.0435,2.0438,2.0438,2.0438,2.0455,2.0449,2.0456,2.0468,2.0474,2.0476,2.0478,2.0485,2.0488,2.0458,2.0458,2.0458,0,2.0458,2.046,2.0452,2.0455,2.0455,2.0446,2.0451,2.045,2.0448,2.0449,2.0443,2.0449,2.0447,2.0455,2.046,2.046,2.0462,2.0456,2.0477,2.0479,2.048,2.0487,2.049,2.0459,2.0458,2.0458,2.0458,0,2.0473,2.0475,2.048,2.0477,2.0478,2.0482,2.0476,2.0478,2.0474,2.047,2.0477,2.0475,2.0476,2.0478,2.0474,2.0487,2.0484,2.0478,2.0468,2.0484,2.049,2.0493,2.046,2.0459,2.0459,2.0459,0,0,2.0496,2.0491,2.0492,2.0492,2.0489,2.049,2.0496,2.0497,2.0499,2.0498,2.0503,2.0507,2.0502,2.0502,2.0498,2.0504,2.0519,2.0497,2.0497,2.0501,2.0534,2.0539,2.0542,2.0515,2.0516,2.0516,2.0535,0,2.0511,2.0518,2.0512,2.052,2.0523,2.0515,2.0519,2.0518,2.0516,2.0519,2.0517,2.052,2.0512,2.0513,2.0518,2.0516,2.0525,2.0514,2.0521,2.0521,2.0521,2.0545,2.055,2.0567,2.0537,2.0537,2.0538,0,2.0528,2.0529,2.0537,2.0535,2.0536,2.054,2.0541,2.0544,2.0543,2.0542,2.0543,2.0538,2.0544,2.0535,2.0544,2.0537,2.054,2.0539,2.054,2.054,2.053,2.0546,2.0573,2.0576,2.0541,2.0541,2.0541,0,2.0545,2.0548,2.0554,2.0553,2.055,2.0554,2.0553,2.0552,2.0554,2.0556,2.0557,2.0559,2.0561,2.0564,2.056,2.0554,2.0571,2.0561,2.057,2.057,2.0574,2.0573,2.0601,2.0575,2.0575,2.0575,2.0575,0,2.0562,2.0568,2.0561,2.0565,2.0572,2.0566,2.0573,2.0572,2.0571,2.0576,2.0569,2.0573,2.0568,2.0573,2.057,2.0579,2.058,2.0579,2.0578,2.058,2.058,2.0581,2.058,2.0576,2.0576,2.0576,2.0575,0,2.0582,2.0577,2.0583,2.058,2.058,2.0585,2.0583,2.0587,2.0585,2.0591,2.0592,2.0588,2.0593,2.059,2.0595,2.0594,2.0605,2.0603,2.0605,2.0605,2.0614,2.0613,2.0643,2.0647,2.0619,2.0619,2.0619,0,2.0593,2.0597,2.0595,2.0597,2.0596,2.06,2.0601,2.0596,2.0599,2.06,2.0604,2.0608,2.0612,2.062,2.0619,2.0624,2.0621,2.0632,2.0622,2.0624,2.0622,2.0622,2.0623,2.0634,2.0634,2.0634,2.0634,0,2.0613,2.0611,2.0613,2.0615,2.0617,2.0619,2.062,2.0622,2.0617,2.0621,2.0625,2.0628,2.0633,2.0638,2.0642,2.0643,2.0638,2.0638,2.064,2.0641,2.0643,2.0643,2.0611,2.0637,2.0637,2.0636,2.0636,2.0636,2.0629,2.0633,2.0632,2.0636,2.0636,2.0637,2.0641,2.064,2.0644,2.0647,2.0644,2.065,2.0652,2.0657,2.0658,2.0664,2.066,2.0663,2.0664,2.0665,2.0667,2.0642,2.0665,2.0665,2.0665,2.0665,2.0665,0,2.065,2.0649,2.0652,2.0654,2.0657,2.0652,2.0653,2.0657,2.0662,2.0663,2.0667,2.0673,2.0678,2.0678,2.0683,2.0688,2.0686,2.0689,2.0689,2.0689,2.067,2.0667,2.0691,2.0691,2.0691,2.0691,2.0691,2.0691,2.0661,2.0668,2.0666,2.0674,2.0673,2.0679,2.068,2.0682,2.0683,2.069,2.0694,2.0694,2.0695,2.0701,2.0706,2.0706,2.0708,2.0713,2.0712,2.0693,2.0691,2.0688,2.0686,2.0713,2.0713,2.0731,2.0732,2.0732]}]]